TimeEDT,TemperatureF,Dew PointF,Humidity,Sea Level PressureIn,VisibilityMPH,Wind Direction,Wind SpeedMPH,Gust SpeedMPH,PrecipitationIn,Events,Conditions,WindDirDegrees,DateUTC
12:54 AM,48.9,48.0,97,29.95,10.0,Calm,Calm,-,N/A,,Clear,0,2013-06-16 04:54:00
1:54 AM,50.0,48.0,93,29.96,10.0,Calm,Calm,-,N/A,,Clear,0,2013-06-16 05:54:00
2:54 AM,48.0,46.0,93,29.96,10.0,Calm,Calm,-,N/A,,Clear,0,2013-06-16 06:54:00
3:54 AM,48.9,46.9,93,29.95,10.0,Calm,Calm,-,N/A,,Clear,0,2013-06-16 07:54:00
4:54 AM,46.9,46.0,97,29.95,10.0,Calm,Calm,-,N/A,,Clear,0,2013-06-16 08:54:00
5:54 AM,48.0,46.9,96,29.95,10.0,Calm,Calm,-,N/A,,Clear,0,2013-06-16 09:54:00
6:54 AM,50.0,48.0,93,29.95,10.0,Calm,Calm,-,N/A,,Clear,0,2013-06-16 10:54:00
7:54 AM,54.0,50.0,86,29.94,10.0,Calm,Calm,-,N/A,,Mostly Cloudy,0,2013-06-16 11:54:00
8:54 AM,55.9,50.0,80,29.94,10.0,Calm,Calm,-,N/A,,Overcast,0,2013-06-16 12:54:00
9:54 AM,61.0,51.1,70,29.91,10.0,Calm,Calm,-,N/A,,Mostly Cloudy,0,2013-06-16 13:54:00
10:54 AM,66.9,52.0,59,29.88,10.0,Variable,4.6,-,N/A,,Mostly Cloudy,0,2013-06-16 14:54:00
11:54 AM,70.0,54.0,57,29.84,10.0,SE,6.9,-,N/A,,Mostly Cloudy,140,2013-06-16 15:54:00
12:54 PM,71.1,54.0,55,29.81,10.0,SSE,9.2,17.3,N/A,,Scattered Clouds,150,2013-06-16 16:54:00
1:54 PM,70.0,55.0,59,29.78,10.0,SSE,6.9,-,N/A,,Scattered Clouds,160,2013-06-16 17:54:00
2:54 PM,68.0,55.9,65,29.75,10.0,SE,5.8,-,N/A,,Mostly Cloudy,140,2013-06-16 18:54:00
3:54 PM,66.9,57.0,70,29.76,9.0,South,8.1,-,0.00,Rain,Light Rain,180,2013-06-16 19:54:00
4:54 PM,63.0,59.0,87,29.75,10.0,Calm,Calm,-,0.01,Rain,Light Rain,0,2013-06-16 20:54:00
5:54 PM,63.0,60.1,90,29.73,10.0,Calm,Calm,-,0.00,,Overcast,0,2013-06-16 21:54:00
6:11 PM,62.6,60.8,94,29.73,7.0,Calm,Calm,-,N/A,,Overcast,0,2013-06-16 22:11:00
6:26 PM,62.6,60.8,94,29.72,10.0,Calm,Calm,-,N/A,,Overcast,0,2013-06-16 22:26:00
6:54 PM,63.0,60.1,90,29.73,10.0,Calm,Calm,-,N/A,,Overcast,0,2013-06-16 22:54:00
7:54 PM,63.0,60.1,90,29.74,10.0,Calm,Calm,-,N/A,,Overcast,0,2013-06-16 23:54:00
8:47 PM,62.6,60.8,94,29.75,10.0,Calm,Calm,-,N/A,,Overcast,0,2013-06-17 00:47:00
8:54 PM,62.1,60.1,93,29.75,10.0,Calm,Calm,-,N/A,,Overcast,0,2013-06-17 00:54:00
9:54 PM,60.1,59.0,96,29.78,10.0,Variable,3.5,-,N/A,,Mostly Cloudy,0,2013-06-17 01:54:00
10:54 PM,60.1,57.9,93,29.80,10.0,Calm,Calm,-,N/A,,Mostly Cloudy,0,2013-06-17 02:54:00
11:54 PM,57.9,57.0,97,29.81,9.0,Calm,Calm,-,N/A,,Mostly Cloudy,0,2013-06-17 03:54:00